This demonstration page uses our WeatherBlox Daily Observations layout. Learn more.

Left ArrowRight Arrow

Hourly Observations for April 11, 2017

Temp ( °F °C ) Dew Point ( °F °C ) Humidity (%) Winds ( mph kmh ) Pressure ( in mb ) Visibility ( mi km ) Precip ( " mm )
12:59 am 00:59 Partly Cloudy 63 17.2 51 10.6 65 65 SSW 12 19 30.25 1024 10 16 0.00 0.00
1:59 am 01:59 Partly Cloudy 63 17.2 51 10.6 65 65 SSW 14 22 30.23 1024 10 16 0.00 0.00
2:59 am 02:59 Partly Cloudy 62 16.7 51 10.6 67 67 SW 12 19 30.23 1024 10 16 0.00 0.00
3:59 am 03:59 Partly Cloudy 62 16.7 51 10.6 67 67 SW 14 22 30.24 1024 10 16 0.00 0.00
4:59 am 04:59 Partly Cloudy 62 16.7 51 10.6 67 67 SSW 14 22 30.24 1024 10 16 0.00 0.00
5:59 am 05:59 Partly Cloudy 60 15.6 51 10.6 72 72 SSW 8 13 30.26 1025 10 16 0.00 0.00
6:59 am 06:59 Partly Cloudy 60 15.6 51 10.6 72 72 SSW 8 13 30.28 1026 10 16 0.00 0.00
7:59 am 07:59 Mostly Cloudy 62 16.7 52 11.1 70 70 SW 12 19 30.28 1026 10 16 0.00 0.00
8:59 am 08:59 Mostly Cloudy 66 18.9 53 11.7 63 63 SW 14 22 30.28 1025 10 16 0.00 0.00
9:59 am 09:59 Mostly Cloudy 71 21.7 53 11.7 53 53 SW 13 20 30.27 1025 10 16 0.00 0.00
10:59 am 10:59 Mostly Cloudy 73 22.8 54 12.2 51 51 WSW 16 26 30.27 1025 10 16 0.00 0.00
11:59 am 11:59 Mostly Cloudy 77 25 54 12.2 45 45 SW 12 19 30.26 1025 10 16 0.00 0.00
12:59 pm 12:59 Mostly Cloudy 79 26.1 54 12.2 42 42 SSW 12 19 30.24 1024 10 16 0.00 0.00
1:59 pm 13:59 Mostly Cloudy 80 26.7 53 11.7 39 39 SW 13 20 30.21 1023 10 16 0.00 0.00
2:59 pm 14:59 Mostly Cloudy 82 27.8 53 11.7 37 37 SW 14 22 30.19 1022 10 16 0.00 0.00
3:59 pm 15:59 Partly Cloudy 82 27.8 51 10.6 34 34 SW 10 17 30.17 1022 10 16 0.00 0.00
4:59 pm 16:59 Partly Cloudy 82 27.8 51 10.6 34 34 SW 12 19 30.16 1021 10 16 0.00 0.00
5:59 pm 17:59 Partly Cloudy 81 27.2 50 10 34 34 WSW 12 19 30.16 1021 10 16 0.00 0.00
6:59 pm 18:59 Partly Cloudy 79 26.1 50 10 36 36 SW 9 15 30.16 1021 10 16 0.00 0.00
7:59 pm 19:59 Partly Cloudy 75 23.9 50 10 41 41 SSW 6 9 30.16 1021 10 16 0.00 0.00
8:59 pm 20:59 Partly Cloudy 72 22.2 53 11.7 52 52 S 13 20 30.19 1022 10 16 0.00 0.00
9:59 pm 21:59 Partly Cloudy 69 20.6 52 11.1 55 55 S 14 22 30.19 1022 10 16 0.00 0.00
10:59 pm 22:59 Partly Cloudy 67 19.4 51 10.6 57 57 S 12 19 30.19 1022 10 16 0.00 0.00
11:59 pm 23:59 Partly Cloudy 66 18.9 50 10 56 56 SSW 12 19 30.19 1022 10 16 0.00 0.00

Powered by AerisWeather